Weather History for Ireland West Airport Knock, Ireland

Change the Weather History Date:

Monday, March 17, 2014

  Actual Average Record
Temperature  
Mean Temperature 46 °F -  
Max Temperature 49 °F - - ()
Min Temperature 42 °F - - ()
Degree Days  
Heating Degree Days 20    
Moisture  
Dew Point 43 °F    
Average Humidity 91    
Maximum Humidity 100    
Minimum Humidity 64    
Precipitation  
Precipitation 0.04 in - - ()
Sea Level Pressure  
Sea Level Pressure 30.11 in    
Wind  
Wind Speed 9 mph ()    
Max Wind Speed 16 mph    
Max Gust Speed -    
Visibility 6.7 miles    
Events Fog , Rain    
T = Trace of Precipitation, MM = Missing Value Source: Averaged Metar Reports

Daily Weather History Graph

Daily Weather History Graph

Search for Another Location

Airport:

Trip Planner

Search our weather history database for the weather conditions in past years. The results will help you decide how hot, cold, wet, or windy it might be!

Date:

Astronomy

Mar. 17, 2014 Rise Set
Actual Time 6:45 AM GMT 6:42 PM GMT
Civil Twilight 6:10 AM GMT 7:18 PM GMT
Nautical Twilight 5:28 AM GMT 7:59 PM GMT
Astronomical Twilight 4:45 AM GMT 8:42 PM GMT
Moon 8:00 PM GMT (3/17) 6:44 AM GMT (3/17)
Length of Visible Light 13h 07m
Length of Day
11h 57m
Waxing Gibbous, 99% of the Moon is Illuminated
Mar 17
Waxing Gibbous
Mar 24
Last Quarter
Mar 30
New
Apr 7
First Quarter
Apr 15
Full

Hourly Weather History & Observations

Time (GMT) Temp. Windchill Dew Point Humidity Pressure Visibility Wind Dir Wind Speed Gust Speed Precip Events Conditions
12:00 AM 44 °F - 43 °F 95% 30.28 in - WSW 11.2 mph - -  
1:00 AM 43 °F - 42 °F 96% 30.26 in - WSW 6.7 mph - -  
2:00 AM 44 °F - 40 °F 81% 30.25 in - WSW 8.9 mph - -  
3:00 AM 44 °F - 41 °F 83% 30.22 in - WSW 8.9 mph - -  
5:00 AM 43 °F - 42 °F 94% 30.20 in - WSW 8.9 mph - -  
6:00 AM 42 °F - 42 °F 99% 30.19 in 11 mi SW 6.7 mph - - Rain Light Drizzle
6:00 AM 42.8 °F 38.6 °F 42.8 °F 100% 30.15 in 6.2 mi SW 6.9 mph - N/A   Mostly Cloudy
7:00 AM 42 °F - 42 °F 99% 30.19 in 11 mi SW 6.7 mph - - Rain Light Drizzle
7:00 AM 42.8 °F 38.6 °F 42.8 °F 100% 30.15 in 6.2 mi SW 6.9 mph - N/A   Mostly Cloudy
7:30 AM 42.8 °F 40.1 °F 42.8 °F 100% 30.15 in 5.0 mi SSW 4.6 mph - N/A   Mostly Cloudy
8:00 AM 42 °F - 42 °F 100% 30.19 in 0 mi SW 6.7 mph - - Fog Partial Fog
8:00 AM 42.8 °F 39.3 °F 42.8 °F 100% 30.15 in 0.3 mi SW 5.8 mph - N/A Fog Fog
8:30 AM 42.8 °F 38.6 °F 42.8 °F 100% 30.15 in 6.2 mi SSW 6.9 mph - N/A   Mostly Cloudy
9:00 AM 43 °F - 42 °F 97% 30.18 in 2 mi SSW 6.7 mph - - Rain Light Drizzle
9:00 AM 42.8 °F 38.6 °F 42.8 °F 100% 30.15 in 2.2 mi SSW 6.9 mph - N/A   Light Drizzle
9:30 AM 42.8 °F 38.0 °F 42.8 °F 100% 30.15 in 3.1 mi SW 8.1 mph - N/A   Light Drizzle
10:00 AM 44 °F - 44 °F 98% 30.16 in 7 mi SW 8.9 mph - - Rain Light Drizzle
10:00 AM 44.6 °F 39.7 °F 44.6 °F 100% 30.12 in 6.2 mi SW 9.2 mph - N/A   Mostly Cloudy
10:30 AM 44.6 °F 38.8 °F 44.6 °F 100% 30.12 in 3.1 mi WSW 11.5 mph - N/A   Light Drizzle
11:00 AM 46 °F - 45 °F 94% 30.14 in 12 mi SW 8.9 mph - - Rain Light Drizzle
11:00 AM 46.4 °F 41.9 °F 44.6 °F 93% 30.12 in 6.2 mi SW 9.2 mph - N/A   Mostly Cloudy
11:30 AM 46.4 °F 41.1 °F 44.6 °F 93% 30.12 in 6.2 mi SW 11.5 mph - N/A   Mostly Cloudy
12:00 PM 46 °F - 44 °F 89% 30.14 in 12 mi SW 8.9 mph - - Rain Light Drizzle
12:00 PM 46.4 °F 41.9 °F 44.6 °F 93% 30.09 in 6.2 mi SW 9.2 mph - N/A   Mostly Cloudy
12:30 PM 44.6 °F 38.4 °F 44.6 °F 100% 30.09 in 4.3 mi WSW 12.7 mph - N/A   Light Drizzle
1:00 PM 46 °F - 43 °F 87% 30.12 in 7 mi WSW 15.7 mph - - Rain Light Drizzle
1:00 PM 46.4 °F 40.1 °F 42.8 °F 87% 30.09 in 6.2 mi WSW 15.0 mph - N/A   Mostly Cloudy
1:30 PM 46.4 °F 40.4 °F 44.6 °F 93% 30.06 in 6.2 mi WSW 13.8 mph - N/A   Mostly Cloudy
2:00 PM 47 °F - 43 °F 82% 30.10 in 16 mi SW 13.4 mph - - Rain Light Drizzle
2:00 PM 46.4 °F 40.4 °F 42.8 °F 87% 30.06 in 6.2 mi SW 13.8 mph - N/A   Scattered Clouds
2:30 PM 48.2 °F - 44.6 °F 87% 30.06 in 6.2 mi SW 11.5 mph - N/A   Mostly Cloudy
3:00 PM 49 °F - 43 °F 74% 30.08 in 25 mi SW 11.2 mph - -   Mostly Cloudy
3:00 PM 48.2 °F - 42.8 °F 82% 30.06 in 6.2 mi SW 10.4 mph - N/A   Mostly Cloudy
3:30 PM 48.2 °F - 41.0 °F 76% 30.04 in 6.2 mi SW 11.5 mph - N/A   Mostly Cloudy
4:00 PM 48 °F - 40 °F 64% 30.07 in 25 mi WSW 13.4 mph - -   Mostly Cloudy
4:00 PM 48.2 °F - 39.2 °F 71% 30.04 in 6.2 mi WSW 12.7 mph - N/A   Mostly Cloudy
4:30 PM 46.4 °F 39.8 °F 42.8 °F 87% 30.04 in 6.2 mi WSW 16.1 mph - N/A Rain Light Rain Showers
5:00 PM 45 °F - 43 °F 89% 30.06 in 8 mi West 13.4 mph - - Rain Light Rain Showers
5:00 PM 44.6 °F 38.1 °F 42.8 °F 93% 30.04 in 6.2 mi West 13.8 mph - N/A Rain Light Rain Showers
5:30 PM 44.6 °F 39.2 °F 42.8 °F 93% 30.04 in 6.2 mi SW 10.4 mph - N/A   Mostly Cloudy
6:00 PM 44 °F - 43 °F 93% 30.04 in 25 mi SSW 11.2 mph - - Rain Light Rain Showers
7:00 PM 44 °F - 42 °F 90% 30.04 in 19 mi SSW 8.9 mph - -   Mostly Cloudy
8:00 PM 44 °F - 41 °F 86% 30.02 in - SSW 8.9 mph - -  
9:00 PM 43 °F - 41 °F 91% 30.00 in - South 8.9 mph - -  
10:00 PM 43 °F - 42 °F 95% 29.98 in - South 13.4 mph - -  
11:00 PM 43 °F - 43 °F 98% 29.95 in - South 15.7 mph - -